Powrót do katalogu

PSLV DEB

AktywnyPO
NORAD 27582·DEBRIS·🇮🇳 India

Wystrzelony Oct 22, 2001 z Satish Dhawan Space Centre

Loading…

Następne Przeloty (najbliższe 24 godziny)

TLE

ŚwieżeSource: Space-Track

Epoka: Sep 11, 2026, 11:03 UTC

1 27582U 01049NA  26254.46054764  .00006637  00000-0  39034-3 0  9997
2 27582  98.2985 333.9027 0025742  87.9166 272.5009 15.11768871305942

Śledź PSLV DEB w czasie rzeczywistym z AllMySat

Download on the App Store